Khon Kaen, Thailand

6:09 AM ICT on February 23, 2017 (GMT +0700)
Khon Kaen

Weather History for VTUK - November, 2012

Change the Weather History Date:

Sunday, November 4, 2012

  Actual Average Record
Temperature  
Mean Temperature 82 °F -  
Max Temperature 93 °F 87 °F - ()
Min Temperature 71 °F 66 °F - ()
Cooling Degree Days 17    
Growing Degree Days 32 (Base 50)    
Moisture  
Dew Point 71 °F    
Average Humidity 67    
Maximum Humidity 100    
Minimum Humidity 38    
Precipitation  
Precipitation 0.00 in 0.02 in - ()
Sea Level Pressure  
Sea Level Pressure 29.84 in    
Wind  
Wind Speed 2 mph ()    
Max Wind Speed 8 mph    
Max Gust Speed -    
Visibility 5.2 miles    
Events      
T = Trace of Precipitation, MM = Missing Value Source: Averaged Metar Reports

Daily Weather History Graph

Daily Weather History Graph

Search for Another Location

Airport or City:

Trip Planner

Search our weather history database for the weather conditions in past years. The results will help you decide how hot, cold, wet, or windy it might be!

Date:

Astronomy

Nov. 04, 2012 Rise Set
Actual Time 6:07 AM ICT 5:36 PM ICT
Civil Twilight 5:44 AM ICT 5:59 PM ICT
Nautical Twilight 5:19 AM ICT 6:25 PM ICT
Astronomical Twilight 4:53 AM ICT 6:50 PM ICT
Moon 9:54 PM ICT (11/4) 10:17 AM ICT (11/4)
Length of Visible Light 12h 14m
Length of Day
11h 29m
Waning Gibbous, 76% of the Moon is Illuminated
Nov 4
Waning Gibbous
Nov 7
Last Quarter
Nov 14
New
Nov 20
First Quarter
Nov 28
Full

Hourly Weather History & Observations

Time (ICT) Temp. Heat Index Dew Point Humidity Pressure Visibility Wind Dir Wind Speed Gust Speed Precip Events Conditions
1:00 AM 74 °F - 67 °F 72% 29.86 in 6 mi Calm Calm - -   Clear
4:00 AM 71.6 °F - 69.8 °F 94% 29.83 in 5.6 mi Calm Calm - N/A   Unknown
6:00 AM 69.8 °F - 69.8 °F 100% 29.86 in 2.5 mi Calm Calm - N/A   Mist
7:00 AM 74 °F - 69 °F 80% 29.88 in 2 mi NNE 4.6 mph - -   Mist
7:00 AM 73.4 °F - 71.6 °F 94% 29.89 in 1.9 mi NE 3.5 mph - N/A   Mist
8:00 AM 77.0 °F - 71.6 °F 83% 29.92 in 2.5 mi NE 3.5 mph - N/A   Mist
9:00 AM 82.4 °F 87.2 °F 71.6 °F 70% 29.95 in 5.0 mi East 3.5 mph - N/A   Unknown
10:00 AM 86.0 °F 93.4 °F 73.4 °F 66% 29.92 in 5.6 mi ESE 3.5 mph - N/A   Unknown
11:00 AM 87.8 °F 95.6 °F 73.4 °F 62% 29.89 in 6.2 mi NE 5.8 mph - N/A   Partly Cloudy
12:00 PM 89.6 °F 96.2 °F 71.6 °F 55% 29.86 in 6.2 mi Variable 5.8 mph - N/A   Scattered Clouds
1:00 PM 91 °F - 69 °F 38% 29.80 in 6 mi ENE 4.6 mph - -   Partly Cloudy
1:00 PM 91.4 °F 98.4 °F 71.6 °F 52% 29.83 in 6.2 mi ENE 8.1 mph - N/A   Scattered Clouds
2:00 PM 91.4 °F 96.8 °F 69.8 °F 49% 29.80 in 6.2 mi NE 5.8 mph - N/A   Scattered Clouds
3:00 PM 93.2 °F 98.8 °F 69.8 °F 46% 29.77 in 6.2 mi Variable 1.2 mph - N/A   Scattered Clouds
4:00 PM 91.4 °F 96.8 °F 69.8 °F 49% 29.77 in 6.2 mi Variable 3.5 mph - N/A   Scattered Clouds
5:00 PM 89.6 °F 96.2 °F 71.6 °F 55% 29.80 in 6.2 mi East 3.5 mph - N/A   Scattered Clouds
6:00 PM 86.0 °F 91.8 °F 71.6 °F 62% 29.80 in 5.6 mi East 2.3 mph - N/A   Partly Cloudy
7:00 PM 84 °F - 70 °F 53% 29.79 in 6 mi Calm Calm - -   Scattered Clouds
7:00 PM 82.4 °F 88.2 °F 73.4 °F 74% 29.80 in 6.2 mi Calm Calm - N/A   Partly Cloudy
8:00 PM 80.6 °F 85.4 °F 73.4 °F 79% 29.86 in 6.2 mi NW 2.3 mph - N/A   Partly Cloudy